Home > Weather > Hønefoss > Past weeks

Flag for Norway Weather for the Past 2 Weeks in Hønefoss, Norway

Now
46 °F

Cool.


Feels Like: 46 °F
Forecast: 30 / 60 °F
Wind: 2 mph from South

Location: Oslo-Blindern

Current Time: May 3, 2016 at 5:03:32 AM

Latest Report: May 3, 2016 at 3:00 AM


Visibility: N/A

Pressure: 29.98 "Hg

Humidity: 77%

Dew Point: 40 °F

Location of HønefossLocation

Historic Weather in Hønefoss — Graph

°F

Hønefoss Temperature Yesterday

Maximum temperature yesterday: 50 °F (at 4:00 PM)
Minimum temperature yesterday: 40 °F (at 2:00 AM)
Average temperature yesterday: 46 °F

High & Low Weather Summary for the Past Weeks

 TemperatureHumidityPressure
High57 °F (Apr 19, 4:00 PM)98% (Apr 29, 7:00 AM)30.27 "Hg (Apr 29, 7:00 AM)
Low33 °F (Apr 25, 3:00 AM)25% (Apr 21, 6:00 PM)29.38 "Hg (Apr 18, 6:00 PM)
Average44 °F59%29.89 "Hg
* Reported Apr 18 3:00 AM — May 3 2:00 AM, Hønefoss, Weather by CustomWeather, © 2016

Note: Actual official high and low records may vary slightly from our data, if they occured in-between our weather recording intervals... More about our weather records

Advertising

Hønefoss Weather History for the Previous 24 Hours

Scroll right to see more
 ConditionsComfort  
Time TempWeatherWind HumidityBarometerVisibility
2:00 AM
Tue, May 3
47 °FCool.2 mph76%30.00 "HgN/A
1:00 AM46 °FCool.2 mph76%30.01 "HgN/A
12:00 AM46 °FCool.2 mph77%30.03 "HgN/A
10:00 PM
Mon, May 2
47 °FCool.2 mph68%30.04 "HgN/A
9:00 PM47 °FCool.3 mph64%30.06 "HgN/A
8:00 PM48 °FCool.5 mph56%30.07 "HgN/A
7:00 PM48 °FCool.5 mph65%30.08 "HgN/A
6:00 PM49 °FCool.6 mph53%30.09 "HgN/A
5:00 PM50 °FOvercast.7 mph42%30.11 "Hg37 mi
4:00 PM50 °FCool.6 mph39%30.13 "HgN/A
3:00 PM49 °FCool.6 mph46%30.14 "HgN/A
2:00 PM48 °FOvercast.6 mph54%30.16 "Hg37 mi
1:00 PM48 °FCool.6 mph48%30.17 "HgN/A
12:00 PM48 °FCool.5 mph53%30.18 "HgN/A
11:00 AM46 °FOvercast.5 mph63%30.20 "Hg37 mi
9:00 AM44 °FQuite cool.3 mph78%30.21 "HgN/A
8:00 AM44 °FOvercast.5 mph77%30.21 "Hg34 mi
6:00 AM42 °FQuite cool.3 mph84%30.21 "HgN/A
Weather by CustomWeather, © 2016

See weather overviewHow to use our weather pages